Weather History for La Junta, CO

Change the Weather History Date:

Monday, February 11, 2013

  Actual Average Record
Temperature  
Mean Temperature 30 °F 34 °F  
Max Temperature 40 °F 48 °F 80 °F (1962)
Min Temperature 19 °F 20 °F -14 °F (1981)
Degree Days  
Heating Degree Days 35 31  
Month to date heating degree days 281 356  
Since 1 July heating degree days 3226 3613  
Cooling Degree Days 0 0  
Month to date cooling degree days 0 0  
Year to date cooling degree days 0 0  
Moisture  
Dew Point 15 °F    
Average Humidity 53    
Maximum Humidity 69    
Minimum Humidity 37    
Precipitation  
Precipitation 0.00 in 0.02 in 0.17 in (1993)
Month to date precipitation 0.08 0.13  
Year to date precipitation 0.10 0.42  
Sea Level Pressure  
Sea Level Pressure 30.09 in    
Wind  
Wind Speed 9 mph (SE)    
Max Wind Speed 22 mph    
Max Gust Speed 29 mph    
Visibility 10 miles    
Events      
T = Trace of Precipitation, MM = Missing Value Source: NWS Daily Summary

Daily Weather History Graph

Daily Weather History Graph

Search for Another Location

Airport:

Trip Planner

Search our weather history database for the weather conditions in past years. The results will help you decide how hot, cold, wet, or windy it might be!

Date:

Astronomy

Feb. 11, 2013 Rise Set
Actual Time 6:48 AM MST 5:28 PM MST
Civil Twilight 6:21 AM MST 5:55 PM MST
Nautical Twilight 5:50 AM MST 6:26 PM MST
Astronomical Twilight 5:19 AM MST 6:57 PM MST
Moon 7:16 AM MST (2/11) 7:25 PM MST (2/11)
Length of Visible Light 11h 34m
Length of Day
10h 40m
Waxing Crescent, 3% of the Moon is Illuminated
Feb 11
Waxing Crescent
Feb 17
First Quarter
Feb 25
Full
Mar 4
Last Quarter
Mar 11
New

Hourly Weather History & Observations

Time (MST) Temp. Windchill Dew Point Humidity Pressure Visibility Wind Dir Wind Speed Gust Speed Precip Events Conditions
12:53 AM 23.0 °F 14.7 °F 12.0 °F 63% 30.12 in 10.0 mi NNE 6.9 mph - N/A   Overcast
1:53 AM 24.1 °F 19.7 °F 12.9 °F 62% 30.12 in 10.0 mi NE 3.5 mph - N/A   Overcast
2:53 AM 21.0 °F 16.2 °F 10.9 °F 65% 30.12 in 10.0 mi NNE 3.5 mph - N/A   Overcast
3:53 AM 21.0 °F 14.6 °F 10.9 °F 65% 30.12 in 10.0 mi NE 4.6 mph - N/A   Overcast
4:53 AM 19.0 °F 11.1 °F 10.0 °F 68% 30.14 in 10.0 mi NNE 5.8 mph - N/A   Mostly Cloudy
5:53 AM 19.0 °F 13.9 °F 9.0 °F 65% 30.16 in 10.0 mi NNE 3.5 mph - N/A   Mostly Cloudy
6:53 AM 19.9 °F - 9.0 °F 62% 30.18 in 10.0 mi Calm Calm - N/A   Overcast
7:53 AM 21.0 °F 14.6 °F 10.9 °F 65% 30.20 in 10.0 mi ESE 4.6 mph - N/A   Overcast
8:53 AM 25.0 °F 15.5 °F 14.0 °F 63% 30.19 in 10.0 mi SE 9.2 mph - N/A   Overcast
9:53 AM 28.0 °F 16.5 °F 12.0 °F 51% 30.18 in 10.0 mi SE 15.0 mph - N/A   Overcast
10:53 AM 30.0 °F 17.9 °F 10.9 °F 45% 30.17 in 10.0 mi ESE 18.4 mph - N/A   Overcast
11:53 AM 33.1 °F 21.2 °F 10.9 °F 40% 30.12 in 10.0 mi SE 20.7 mph 26.5 mph N/A   Scattered Clouds
12:53 PM 35.1 °F 24.1 °F 12.9 °F 40% 30.06 in 10.0 mi SE 19.6 mph 27.6 mph N/A   Clear
1:53 PM 37.0 °F 26.4 °F 14.0 °F 39% 30.00 in 10.0 mi ESE 20.7 mph 26.5 mph N/A   Clear
2:53 PM 39.9 °F 31.1 °F 17.1 °F 40% 29.98 in 10.0 mi SE 17.3 mph - N/A   Clear
3:53 PM 39.9 °F 31.1 °F 18.0 °F 41% 29.97 in 10.0 mi SE 17.3 mph 23.0 mph N/A   Clear
4:53 PM 39.0 °F 32.8 °F 19.9 °F 46% 29.98 in 10.0 mi ESE 9.2 mph - N/A   Partly Cloudy
5:53 PM 37.0 °F 31.6 °F 21.9 °F 54% 30.01 in 10.0 mi South 6.9 mph - N/A   Mostly Cloudy
6:53 PM 35.1 °F 32.2 °F 21.0 °F 57% 30.04 in 10.0 mi WSW 3.5 mph - N/A   Mostly Cloudy
7:53 PM 32.0 °F 25.6 °F 21.0 °F 64% 30.05 in 10.0 mi SW 6.9 mph - N/A   Overcast
8:53 PM 30.9 °F 24.3 °F 21.0 °F 67% 30.04 in 10.0 mi SSW 6.9 mph - N/A   Overcast
9:53 PM 28.9 °F 22.8 °F 19.9 °F 69% 30.03 in 10.0 mi SSW 5.8 mph - N/A   Overcast
10:53 PM 28.0 °F 20.8 °F 18.0 °F 66% 30.04 in 10.0 mi SSW 6.9 mph - N/A   Clear
11:53 PM 27.0 °F 17.3 °F 16.0 °F 63% 30.04 in 10.0 mi SSW 10.4 mph - N/A   Partly Cloudy